This is the latest recevied weather packets stored in our database for station/object K5KVN. If no packets are shown the sender has not sent any weather packets the latest 10 day(s).
| Time | Temp. | Humidity | Pressure | Rain* | Wind** | Luminosity | Snow |
|---|---|---|---|---|---|---|---|
| 1788275096 | 31.67° C | 61% | 1020.3 hPa | 0 mm | - | - | - |
| 1788274434 | 30.56° C | 63% | 1020.3 hPa | 0 mm | - | - | - |
| 1788273832 | 30.56° C | 64% | 1020.5 hPa | 0 mm | - | - | - |
| 1788273233 | 29.44° C | 65% | 1020.5 hPa | 0 mm | - | - | - |
| 1788272634 | 29.44° C | 66% | 1020.3 hPa | 0 mm | - | - | - |
| 1788272031 | 28.89° C | 67% | 1020.3 hPa | 0 mm | - | - | - |
| 1788271431 | 28.33° C | 68% | 1020.5 hPa | 0 mm | - | - | - |
| 1788270890 | 27.78° C | 71% | 1020.6 hPa | 0 mm | - | - | - |
| 1788270230 | 26.67° C | 74% | 1020.5 hPa | 0 mm | - | - | - |
| 1788269629 | 25.56° C | 79% | 1020.5 hPa | 0 mm | - | - | - |
| 1788269031 | 24.44° C | 82% | 1020.3 hPa | 0 mm | - | - | - |
| 1788268486 | 23.89° C | 84% | 1020.3 hPa | 0 mm | - | - | - |
| 1788267824 | 23.33° C | 85% | 1020.1 hPa | 0 mm | - | - | - |
| 1788267224 | 22.78° C | 85% | 1020.1 hPa | 0 mm | - | - | - |
| 1788266622 | 22.78° C | 85% | 1020 hPa | 0 mm | - | - | - |
| 1788266021 | 22.22° C | 84% | 1019.9 hPa | 0 mm | - | - | - |
| 1788265419 | 22.78° C | 84% | 1019.6 hPa | 0 mm | - | - | - |
| 1788264819 | 22.78° C | 83% | 1019.4 hPa | 0 mm | - | - | - |
| 1788264220 | 22.78° C | 82% | 1019.3 hPa | 0 mm | - | - | - |
| 1788263619 | 22.78° C | 82% | 1019.2 hPa | 0 mm | - | - | - |
| 1788263017 | 23.33° C | 81% | 1019.3 hPa | 0 mm | - | - | - |
| 1788262416 | 23.33° C | 81% | 1019.1 hPa | 0 mm | - | - | - |
| 1788261816 | 23.33° C | 80% | 1019.1 hPa | 0 mm | - | - | - |
| 1788261214 | 23.33° C | 80% | 1019.1 hPa | 0 mm | - | - | - |
| 1788260674 | 23.89° C | 79% | 1019 hPa | 0 mm | - | - | - |
* Rain latest hour (hover to see other rain measurements)
** Current wind speed in m/s (hover to see current wind gust speed)